PDT,Max TemperatureF,Mean TemperatureF,Min TemperatureF,Max Dew PointF,MeanDew PointF,Min DewpointF,Max Humidity, Mean Humidity, Min Humidity, Max Sea Level PressureIn, Mean Sea Level PressureIn, Min Sea Level PressureIn, Max VisibilityMiles, Mean VisibilityMiles, Min VisibilityMiles, Max Wind SpeedMPH, Mean Wind SpeedMPH, Max Gust SpeedMPH,PrecipitationIn, CloudCover, Events, WindDirDegrees
2012-9-1,84,64,46,52,34,17,97,44,9,30.05,29.95,29.91,10,10,10,8,2,,0.01,1,,318
2012-9-2,89,68,48,34,26,16,50,26,7,30.13,29.99,29.91,10,10,10,7,3,,0.00,0,,287
2012-9-3,93,72,52,32,25,14,40,21,6,30.03,29.97,29.91,10,10,10,9,5,,0.00,0,,198
2012-9-4,93,72,53,34,29,23,45,24,8,30.14,30.01,29.94,10,10,10,10,6,,0.00,1,,262
2012-9-5,91,71,53,43,32,16,36,24,7,30.10,29.98,29.90,10,10,10,21,5,28,0.00,3,,246
2012-9-6,86,73,62,59,50,43,82,51,23,30.13,30.01,29.94,10,10,6,14,6,,0.03,5,Rain-Thunderstorm,287
2012-9-7,91,72,55,49,43,35,67,38,16,30.15,30.05,30.01,10,10,10,8,3,,0.00,2,,247
2012-9-8,98,76,55,50,40,33,53,31,13,30.18,30.01,29.89,10,10,10,12,3,17,0.00,3,,238
2012-9-9,98,78,62,48,45,42,54,32,16,30.04,29.91,29.82,10,10,6,21,5,29,0.00,1,,268
2012-9-10,91,73,55,42,36,30,55,29,14,30.02,29.90,29.80,10,10,10,10,5,,0.00,1,,357
2012-9-11,88,70,51,35,28,21,50,25,9,30.00,29.94,29.90,10,10,10,12,6,,0.00,1,,340
2012-9-12,87,69,51,29,22,16,38,20,8,30.20,30.10,30.00,10,10,10,8,5,,0.00,0,,350
2012-9-13,91,68,45,28,19,9,46,22,5,30.31,30.16,30.08,10,10,10,9,3,,0.00,3,,229
2012-9-14,93,68,44,30,23,17,43,21,8,30.24,30.10,30.02,10,10,10,9,3,,0.00,3,,5
2012-9-15,91,72,52,33,29,24,43,22,9,30.25,30.08,29.99,10,10,10,13,5,18,0.00,0,,167
2012-9-16,89,70,51,35,29,24,49,25,10,30.20,30.05,29.97,10,10,10,10,4,,0.00,1,,203
2012-9-17,89,68,48,33,27,21,48,25,9,30.16,30.03,29.97,10,10,10,9,4,,0.00,1,,319
2012-9-18,90,68,48,32,26,21,45,24,9,30.15,30.04,29.99,10,10,10,8,3,,0.00,0,,237
2012-9-19,90,70,50,32,27,23,38,24,10,30.17,30.05,29.99,10,10,9,10,6,30,0.00,1,,146
2012-9-20,91,69,48,33,26,21,43,24,8,30.17,30.04,29.97,10,10,6,8,5,,0.00,3,,129
2012-9-21,91,70,50,37,26,19,43,22,8,30.11,29.97,29.88,10,10,10,12,4,20,0.00,3,,140
2012-9-22,88,74,59,38,34,31,36,26,13,30.09,29.96,29.91,10,10,10,8,6,16,0.00,3,,268
2012-9-23,84,68,54,40,37,33,53,32,17,30.08,29.95,29.89,10,10,10,12,6,,0.00,2,,241
2012-9-24,78,64,51,42,37,30,66,42,19,30.06,29.98,29.91,10,8,1,15,8,20,0.00,3,,352
2012-9-25,79,61,43,39,35,29,63,40,19,30.07,29.97,29.92,10,10,10,8,4,16,0.00,1,,287
2012-9-26,82,62,43,36,33,29,58,36,15,30.05,29.95,29.91,10,10,10,7,3,,0.00,0,,49
2012-9-27,87,66,48,34,31,28,50,32,13,30.09,29.98,29.91,10,10,10,9,4,,0.00,0,,180
2012-9-28,88,68,50,36,30,26,52,29,11,30.06,29.96,29.90,10,10,10,9,3,,0.00,2,,174
2012-9-29,88,68,50,33,28,23,44,25,10,30.19,30.05,29.98,10,10,10,8,4,,0.00,1,,196
2012-9-30,89,70,52,32,28,24,45,24,10,30.29,30.13,30.08,10,10,10,9,5,,0.00,0,,57